Miscellaneous Local Product
Issued by NWS Hastings, NE

Home | Current Version | Previous Version | Graphics & Text | Print | Product List | Glossary On
Versions: 1 2 3 4 5 6 7 8 9 10 11 12 13 14 15 16 17 18 19 20 21 22 23 24 25 26 27 28 29 30 31 32 33 34 35 36 37 38 39 40 41 42 43 44 45 46 47 48 49 50
000
AXUS43 KGID 230402
MISGRI

GID CWA HOURLY WEATHER ROUNDUP
NATIONAL WEATHER SERVICE HASTINGS NE
1100 PM CDT FRI MAY 22 2015

NOTE: "FAIR" INDICATES FEW OR NO CLOUDS BELOW 12,000 FEET WITH NO
SIGNIFICANT WEATHER AND/OR OBSTRUCTIONS TO VISIBILITY.

...SOUTH CENTRAL NEBRASKA...

CITY           SKY/WX    TMP DP  RH WIND       PRES   REMARKS
GRAND ISLAND   CLOUDY    54  49  83 SE13      30.17R
HASTINGS       CLOUDY    54  51  90 SE9       30.15S
KEARNEY        CLOUDY    52  50  93 SE13      30.14S
ORD            CLOUDY    50  48  93 E7        30.15S FOG
YORK           CLOUDY    57  46  67 SE10G16   30.17S
AURORA         CLOUDY    55  47  73 SE7       30.16S
LEXINGTON      CLOUDY    53  52  97 SE12      30.12S FOG
HOLDREGE       CLOUDY    53  52  96 SE15      30.13R FOG
HEBRON         CLOUDY    56  48  73 E3        30.17R

...NEBRASKA PANHANDLE...

CITY           SKY/WX    TMP DP  RH WIND       PRES   REMARKS
CHADRON        CLOUDY    49  44  83 SE12      30.09R
ALLIANCE       CLOUDY    45  44  97 SE13      30.08S
SCOTTSBLUFF    CLOUDY    46  45  96 SE15      30.08R
SIDNEY         CLOUDY    45  44  97 E10       30.08S FOG

...WESTERN AND NORTH CENTRAL NEBRASKA...

CITY           SKY/WX    TMP DP  RH WIND       PRES   REMARKS
VALENTINE      CLOUDY    48  43  82 SE9       30.15S
AINSWORTH      CLOUDY    48  46  95 SE9       30.16S
ONEILL         DRIZZLE   51  50  97 SE5       30.18S
BROKEN BOW     LGT RAIN  50  48  93 E9        30.13S FOG
IMPERIAL       CLOUDY    50  48  93 SE13      30.06R FOG
NORTH PLATTE   CLOUDY    49  48  97 E13       30.10R
MCCOOK         CLOUDY    52  51  97 SE14      30.08R

...EASTERN NEBRASKA...

CITY           SKY/WX    TMP DP  RH WIND       PRES   REMARKS
NORFOLK        CLOUDY    53  51  93 SE7       30.17S
SO SIOUX CITY  CLOUDY    59  46  62 SE7       30.20R
TEKAMAH        CLOUDY    59  50  72 SE8       30.19R
COLUMBUS       CLOUDY    57  45  62 SE6       30.21R
ALBION         CLOUDY    53  49  85 E3        30.18R
OMAHA EPPLEY   CLOUDY    60  49  66 SE7       30.20R
OFFUTT AFB     CLOUDY    58  50  74 SE3       30.19R
MILLARD        CLOUDY    60  49  67 SE3       30.20R
LINCOLN        CLOUDY    60  46  59 SE9       30.19R
NEBRASKA CITY  CLOUDY    58  46  63 S5        30.21R
BEATRICE       CLOUDY    58  45  61 SE9       30.18S
FALLS CITY     CLOUDY    57  50  77 SE5       30.20R

...NORTHERN KANSAS...

CITY           SKY/WX    TMP DP  RH WIND       PRES   REMARKS
GOODLAND       FOG       52  52 100 SE21G26   30.03R VSB 1/2
HILL CITY      CLOUDY    55  53  93 SE13      30.11R
NORTON         CLOUDY    54  50  87 SE10      30.10R FOG
PHILLIPSBURG   CLOUDY    57  57 100 SE12      30.13R FOG
SMITH CENTER   CLOUDY    52  52 100 E10       30.15R FOG
HAYS           CLOUDY    55  48  76 SE14      30.12R
RUSSELL        CLOUDY    55  55 100 SE13      30.12R
CONCORDIA      CLOUDY    57  49  74 SE10      30.16R
SALINA         CLOUDY    59  50  72 SE14      30.17R
TOPEKA         CLOUDY    61  51  70 E7        30.20R



USA.gov is the U.S. government's official web portal to all federal, state and local government web resources and services.